This is the latest recevied weather packets stored in our database for station/object SR9SMR. If no packets are shown the sender has not sent any weather packets the latest 10 day(s).
| Time | Temp. | Humidity | Pressure | Rain* | Wind** | Luminosity | Snow |
|---|---|---|---|---|---|---|---|
| 1787483756 | 13.33° C | 100% | 907.4 hPa | - | - | - | - |
| 1787483744 | 12.78° C | 100% | 907 hPa | - | - | - | - |
| 1787483616 | 12.78° C | 100% | 907.1 hPa | - | - | - | - |
| 1787483487 | 12.78° C | 100% | 906.3 hPa | - | - | - | - |
| 1787483424 | 13.33° C | 100% | 906.2 hPa | - | - | - | - |
| 1787483357 | 13.33° C | 100% | 906 hPa | - | - | - | - |
| 1787483240 | 13.33° C | 100% | 906 hPa | - | - | - | - |
| 1787483111 | 13.33° C | 100% | 906.3 hPa | - | - | - | - |
| 1787482994 | 13.33° C | 100% | 906 hPa | - | - | - | - |
| 1787482982 | 13.33° C | 100% | 905.6 hPa | - | - | - | - |
| 1787482854 | 13.89° C | 100% | 906.4 hPa | - | - | - | - |
| 1787482791 | 13.89° C | 100% | 906.7 hPa | - | - | - | - |
| 1787482724 | 13.89° C | 100% | 907.2 hPa | - | - | - | - |
| 1787482596 | 13.89° C | 100% | 907.4 hPa | - | - | - | - |
| 1787482467 | 14.44° C | 100% | 907.4 hPa | - | - | - | - |
| 1787482339 | 13.89° C | 100% | 907.9 hPa | - | - | - | - |
| 1787482284 | 13.33° C | 100% | 907.8 hPa | - | - | - | - |
| 1787482215 | 13.33° C | 100% | 907.5 hPa | - | - | - | - |
| 1787482143 | 13.33° C | 100% | 0 hPa | - | - | - | - |
| 1787482046 | 13.33° C | 100% | 906.8 hPa | - | - | - | - |
| 1787481983 | 13.33° C | 100% | 907.1 hPa | - | - | - | - |
| 1787481918 | 13.33° C | 100% | 907.1 hPa | - | - | - | - |
| 1787481791 | 13.33° C | 100% | 907.1 hPa | - | - | - | - |
| 1787481663 | 13.33° C | 100% | 907.3 hPa | - | - | - | - |
| 1787481535 | 13.33° C | 100% | 906.2 hPa | - | - | - | - |
* Rain since midnight (hover to see other rain measurements)
** Current wind speed in m/s (hover to see current wind gust speed)